Starlink 32612

operational
NORAD ID: 61972 Int'l Des: 2024-210 Owner: SPXS Country: US Constellation: starlink
LEOCIRCULAR

关于 Starlink 32612

正在加载描述...

实时位置

正在加载3D地球...

即将过境

高度历史

Altitude vs Time

uPlot chart will show altitude changes over time

两行轨道根数

1 61972U 24210P 25257.25665788 .00018251 00000-0 67070-3 0 9992
2 61972 43.0005 96.4975 0002245 274.9128 85.1468 15.27599280 47893
Epoch: Sep 14, 2025 • Age: 37 hours

当前状态

高度 492.5 km
速度 7.62 km/s
星下点 -38.03°S, 103.04°E
发射日期 Nov 14, 2024
运行时间 0.8 years
类型 internet

技术详情

分类 Payload
质量 730.00 kg
干质量 700.00 kg
总质量 730.00 kg
长度 0.30 m
直径 4.10 m
跨度 29.00 m
形状 Box + pan
制造商 SPXS
平台类型 Starlink V2M
阶段状态 In Orbit
所有者/国家 SPXS/US

大型星座

Loading constellations...